Weather History for Big Bear City, CA

Change the Weather History Date:

Thursday, February 28, 2013

  Actual Average (KBUO) Record (KBUO)
Temperature  
Mean Temperature 34 °F -  
Max Temperature 48 °F 58 °F 80 °F (1999)
Min Temperature 19 °F 39 °F 39 °F (2001)
Degree Days  
Heating Degree Days 32    
Moisture  
Dew Point 10 °F    
Average Humidity 44    
Maximum Humidity 68    
Minimum Humidity 17    
Precipitation  
Precipitation 0.00 in - - ()
Sea Level Pressure  
Sea Level Pressure 30.42 in    
Wind  
Wind Speed 3 mph (ENE)    
Max Wind Speed 13 mph    
Max Gust Speed 18 mph    
Visibility 10 miles    
Events      
Averages and records for this station are not official NWS values.
T = Trace of Precipitation, MM = Missing Value Source: NWS Daily Summary

Daily Weather History Graph

Daily Weather History Graph

Search for Another Location

Airport:

Trip Planner

Search our weather history database for the weather conditions in past years. The results will help you decide how hot, cold, wet, or windy it might be!

Date:

Astronomy

Feb. 28, 2013 Rise Set
Actual Time 6:17 AM PST 5:43 PM PST
Civil Twilight 5:51 AM PST 6:08 PM PST
Nautical Twilight 5:22 AM PST 6:37 PM PST
Astronomical Twilight 4:53 AM PST 7:06 PM PST
Moon 9:03 PM PST (2/28) 7:39 AM PST (2/28)
Length of Visible Light 12h 16m
Length of Day
11h 25m
Waning Gibbous, 90% of the Moon is Illuminated
Feb 28
Waning Gibbous
Mar 4
Last Quarter
Mar 11
New
Mar 19
First Quarter
Mar 27
Full

Hourly Weather History & Observations

Time (PST) Temp. Windchill Dew Point Humidity Pressure Visibility Wind Dir Wind Speed Gust Speed Precip Events Conditions
12:15 AM 23.0 °F - 8.6 °F 54% 30.37 in 10.0 mi Calm Calm - N/A   Clear
12:35 AM 23.0 °F - 8.6 °F 54% 30.38 in 10.0 mi Calm Calm - N/A   Clear
12:55 AM 23.0 °F - 10.4 °F 59% 30.38 in 10.0 mi Calm Calm - N/A   Clear
1:15 AM 21.2 °F - 8.6 °F 58% 30.38 in 10.0 mi Calm Calm - N/A   Clear
1:55 AM 21.2 °F - 8.6 °F 58% 30.38 in 10.0 mi Calm Calm - N/A   Clear
2:35 AM 21.2 °F - 10.4 °F 63% 30.37 in 10.0 mi Calm Calm - N/A   Clear
2:55 AM 21.2 °F - 8.6 °F 58% 30.36 in 10.0 mi Calm Calm - N/A   Clear
3:15 AM 21.2 °F - 10.4 °F 63% 30.36 in 10.0 mi Calm Calm - N/A   Clear
3:35 AM 19.4 °F - 10.4 °F 68% 30.36 in 10.0 mi Calm Calm - N/A   Clear
3:55 AM 19.4 °F - 10.4 °F 68% 30.37 in 10.0 mi Calm Calm - N/A   Clear
4:15 AM 19.4 °F - 10.4 °F 68% 30.37 in 10.0 mi Calm Calm - N/A   Clear
4:35 AM 19.4 °F - 10.4 °F 68% 30.37 in 10.0 mi Calm Calm - N/A   Clear
4:55 AM 19.4 °F - 10.4 °F 68% 30.37 in 10.0 mi Calm Calm - N/A   Clear
5:15 AM 19.4 °F - 10.4 °F 68% 30.38 in 10.0 mi Calm Calm - N/A   Clear
5:35 AM 19.4 °F - 10.4 °F 68% 30.39 in 10.0 mi Calm Calm - N/A   Clear
6:15 AM 19.4 °F - 10.4 °F 68% 30.39 in 10.0 mi Calm Calm - N/A   Clear
6:35 AM 19.4 °F - 8.6 °F 63% 30.39 in 10.0 mi Calm Calm - N/A   Clear
6:55 AM 19.4 °F - 8.6 °F 63% 30.40 in 10.0 mi Calm Calm - N/A   Clear
7:15 AM 21.2 °F - 10.4 °F 63% 30.40 in 10.0 mi Calm Calm - N/A   Clear
7:55 AM 28.4 °F - 12.2 °F 51% 30.39 in 10.0 mi Calm Calm - N/A   Clear
8:15 AM 32.0 °F 25.6 °F 14.0 °F 48% 30.39 in 10.0 mi ENE 6.9 mph - N/A   Clear
8:35 AM 35.6 °F 30.7 °F 14.0 °F 41% 30.40 in 10.0 mi ENE 5.8 mph - N/A   Clear
8:55 AM 41.0 °F 36.4 °F 8.6 °F 26% 30.41 in 10.0 mi East 6.9 mph - N/A   Clear
9:15 AM 42.8 °F 38.0 °F 1.4 °F 18% 30.42 in 10.0 mi ENE 8.1 mph - N/A   Clear
9:55 AM 42.8 °F 36.2 °F 1.4 °F 18% 30.42 in 10.0 mi ENE 12.7 mph - N/A   Clear
10:15 AM 44.6 °F 39.2 °F 3.2 °F 18% 30.42 in 10.0 mi ENE 10.4 mph - N/A   Clear
10:35 AM 44.6 °F 38.4 °F 3.2 °F 18% 30.43 in 10.0 mi NE 12.7 mph 17.3 mph N/A   Clear
10:55 AM 44.6 °F 38.4 °F 3.2 °F 18% 30.43 in 10.0 mi ENE 12.7 mph 18.4 mph N/A   Clear
11:15 AM 44.6 °F 39.2 °F 6.8 °F 21% 30.43 in 10.0 mi ENE 10.4 mph 17.3 mph N/A   Clear
11:35 AM 46.4 °F 40.7 °F 5.0 °F 18% 30.43 in 10.0 mi ENE 12.7 mph - N/A   Clear
11:55 AM 44.6 °F 40.2 °F 5.0 °F 20% 30.43 in 10.0 mi ENE 8.1 mph - N/A   Clear
12:15 PM 44.6 °F 38.8 °F 5.0 °F 20% 30.42 in 10.0 mi NE 11.5 mph - N/A   Clear
12:35 PM 46.4 °F 41.1 °F 5.0 °F 18% 30.41 in 10.0 mi ENE 11.5 mph 18.4 mph N/A   Clear
12:55 PM 46.4 °F 41.5 °F 6.8 °F 20% 30.41 in 10.0 mi NE 10.4 mph - N/A   Clear
1:35 PM 46.4 °F 41.1 °F 6.8 °F 20% 30.41 in 10.0 mi ENE 11.5 mph - N/A   Clear
1:55 PM 48.2 °F - 8.6 °F 20% 30.41 in 10.0 mi ENE 6.9 mph - N/A   Clear
2:15 PM 46.4 °F 42.9 °F 8.6 °F 22% 30.41 in 10.0 mi East 6.9 mph - N/A   Clear
2:35 PM 46.4 °F 42.4 °F 6.8 °F 20% 30.41 in 10.0 mi East 8.1 mph - N/A   Clear
2:55 PM 48.2 °F - 5.0 °F 17% 30.40 in 10.0 mi East 8.1 mph - N/A   Clear
3:15 PM 46.4 °F 41.9 °F 5.0 °F 18% 30.41 in 10.0 mi NE 9.2 mph - N/A   Clear
4:15 PM 46.4 °F 41.5 °F 3.2 °F 17% 30.41 in 10.0 mi ENE 10.4 mph - N/A   Clear
4:35 PM 44.6 °F 40.2 °F 3.2 °F 18% 30.41 in 10.0 mi ENE 8.1 mph - N/A   Clear
5:15 PM 44.6 °F 40.2 °F 3.2 °F 18% 30.42 in 10.0 mi ENE 8.1 mph - N/A   Clear
5:35 PM 42.8 °F 38.6 °F 5.0 °F 21% 30.42 in 10.0 mi ENE 6.9 mph - N/A   Clear
5:55 PM 41.0 °F 39.0 °F 8.6 °F 26% 30.42 in 10.0 mi East 3.5 mph - N/A   Clear
6:15 PM 37.4 °F - 10.4 °F 33% 30.43 in 10.0 mi Calm Calm - N/A   Clear
6:35 PM 35.6 °F - 12.2 °F 38% 30.44 in 10.0 mi Calm Calm - N/A   Clear
6:55 PM 33.8 °F - 12.2 °F 41% 30.45 in 10.0 mi Calm Calm - N/A   Clear
7:15 PM 32.0 °F - 12.2 °F 44% 30.45 in 10.0 mi Calm Calm - N/A   Clear
7:35 PM 32.0 °F - 14.0 °F 48% 30.47 in 10.0 mi Calm Calm - N/A   Clear
7:55 PM 30.2 °F - 12.2 °F 47% 30.47 in 10.0 mi Calm Calm - N/A   Clear
8:15 PM 30.2 °F - 14.0 °F 51% 30.47 in 10.0 mi Calm Calm - N/A   Clear
8:35 PM 30.2 °F - 14.0 °F 51% 30.47 in 10.0 mi Calm Calm - N/A   Clear
8:55 PM 30.2 °F - 14.0 °F 51% 30.47 in 10.0 mi Calm Calm - N/A   Clear
9:15 PM 30.2 °F - 15.8 °F 55% 30.47 in 10.0 mi Calm Calm - N/A   Clear
9:35 PM 28.4 °F - 15.8 °F 59% 30.48 in 10.0 mi Calm Calm - N/A   Clear
9:55 PM 28.4 °F - 17.6 °F 64% 30.48 in 10.0 mi Calm Calm - N/A   Clear
10:15 PM 28.4 °F - 17.6 °F 64% 30.48 in 10.0 mi Calm Calm - N/A   Clear
10:35 PM 26.6 °F - 15.8 °F 64% 30.48 in 10.0 mi Calm Calm - N/A   Clear
10:55 PM 28.4 °F - 15.8 °F 59% 30.47 in 10.0 mi Calm Calm - N/A   Clear
11:15 PM 28.4 °F - 17.6 °F 64% 30.48 in 10.0 mi Calm Calm - N/A   Clear
11:35 PM 28.4 °F - 15.8 °F 59% 30.48 in 7.0 mi Calm Calm - N/A   Clear
11:55 PM 28.4 °F - 17.6 °F 64% 30.48 in 7.0 mi Calm Calm - N/A   Clear